1496232000.56,43590,20.25,74306.5,14.39,-0.45,-3.63,0,*7E
1496232001.77,43591,20.25,74310.5,14.39,1.21,-3.23,0,*65
1496232002.99,43592,20.25,74306.0,14.35,-0.93,-6.31,0,*79
1496232004.21,43593,20.25,74304.8,14.31,-2.47,-8.21,0,*48
1496232005.42,43594,20.25,74302.8,14.31,-0.49,-5.65,0,*7E
1496232006.64,43595,20.25,74292.0,14.31,-0.37,-4.73,0,*70
1496232007.87,43596,20.25,74292.3,14.31,-1.01,-4.61,0,*44
1496232009.11,43597,20.25,74292.5,14.33,-1.83,-3.91,0,*45
1496232010.33,43598,20.25,74294.3,14.35,-1.95,-2.19,0,*4A
1496232011.55,43599,20.25,74298.8,14.39,-2.71,-1.67,0,*44
1496232012.78,43600,20.25,74298.3,14.43,-3.95,-1.47,0,*43
1496232013.97,43601,20.25,74300.8,14.47,-4.69,-0.65,0,*73
1496232015.23,43602,20.25,74306.5,14.49,-5.19,-0.23,0,*7A
1496232016.5,43603,20.25,74308.3,14.55,-5.23,0.21,0,*50
1496232017.74,43604,20.25,74310.5,14.55,-3.91,1.97,0,*64
1496232018.98,43605,20.25,74308.3,14.59,-3.15,2.89,0,*69
1496232020.19,43606,20.25,74308.5,14.65,-2.91,3.37,0,*6C
1496232021.41,43607,20.25,74310.8,14.69,-4.13,2.77,0,*68
1496232022.64,43608,20.25,74312.0,14.71,-5.47,1.71,0,*6B
1496232023.88,43609,20.25,74310.8,14.71,-5.85,1.79,0,*6C
1496232025.09,43610,20.25,74314.5,14.69,-5.27,2.31,0,*6A
1496232026.31,43611,20.25,74318.5,14.69,-4.49,2.81,0,*69
1496232027.53,43612,20.25,74316.3,14.69,-3.27,3.53,0,*6B
1496232028.76,43613,20.25,74318.8,14.67,-1.99,4.27,0,*67
1496232030.0,43614,20.25,74326.0,14.67,-1.01,4.53,0,*62
1496232031.24,43615,20.25,74326.5,14.65,-1.39,3.45,0,*6A
1496232032.45,43616,20.25,74318.0,14.65,-1.75,2.17,0,*67
1496232033.65,43617,20.25,74318.8,14.59,-0.49,2.99,0,*51
1496232034.87,43618,20.25,74322.0,14.57,-0.49,2.51,0,*54
1496232036.08,43619,20.25,74316.0,14.53,-1.71,0.75,0,*5F
1496232037.29,43620,20.25,74312.3,14.47,-0.81,1.33,0,*5D
1496232038.52,43621,20.25,74316.5,14.43,1.67,3.53,0,*48
1496232039.75,43622,20.25,74314.5,14.41,3.15,4.49,0,*42
1496232040.96,43623,20.25,74326.8,14.39,3.59,4.71,0,*4F
1496232042.21,43624,20.25,74328.0,14.37,0.95,1.59,0,*7A
1496232043.43,43625,20.25,74316.3,14.33,-1.67,-1.17,0,*49
1496232044.67,43626,20.25,74312.0,14.25,-1.25,-1.01,0,*4C
1496232045.88,43627,20.25,74318.8,14.21,-0.29,-0.37,0,*40
1496232047.07,43628,20.25,74324.0,14.13,-0.81,-1.51,0,*7D
1496232048.3,43629,20.25,74316.3,14.03,-0.27,-0.65,0,*47
1496232049.54,43630,20.25,74312.8,13.99,-0.85,-1.67,0,*70
1496232050.81,43631,20.25,74302.5,13.91,-0.85,-2.55,0,*7B
1496232052.02,43632,20.25,74298.5,13.87,-0.73,-3.59,0,*7B
1496232053.27,43633,20.25,74292.8,13.79,-1.39,-4.73,0,*4B
1496232054.52,43634,20.25,74296.5,13.75,-3.51,-5.93,0,*43
1496232055.77,43635,20.25,74284.0,13.69,-5.15,-5.47,0,*40
1496232056.99,43636,20.25,74268.8,13.65,-3.79,-3.23,0,*47
1496232058.19,43637,20.25,74270.3,13.63,-2.87,-1.75,0,*41
1496232059.39,43638,20.25,74282.8,13.59,-1.21,-1.75,0,*48
1496232060.58,43639,20.25,74292.0,13.59,-0.69,-3.39,0,*7E
1496232061.81,43640,20.25,74298.3,13.57,0.41,-4.21,0,*57
1496232063.05,43641,20.25,74286.0,13.57,0.25,-6.31,0,*57
1496232064.3,43642,20.25,74288.5,13.63,1.33,-7.01,0,*67
1496232065.51,43643,20.25,74290.3,13.63,-1.17,-10.15,0,*7E
1496232066.78,43644,20.25,74286.5,13.65,-2.59,-11.97,0,*7D
1496232068.04,43645,20.25,74296.0,13.67,-5.27,-17.07,0,*7F
1496232069.27,43646,20.25,74296.5,13.67,-6.43,-19.65,0,*77
1496232070.48,43647,20.25,74304.5,13.67,-9.23,-20.63,0,*73
1496232071.72,43648,20.25,74296.5,13.67,-12.29,-21.33,0,*48
1496232073.0,43649,20.25,74300.0,13.69,-18.59,-25.81,0,*47
1496232074.23,43650,20.25,74306.0,13.71,-14.61,-19.61,0,*40
1496232075.49,43651,20.25,74302.3,13.73,-13.69,-17.45,0,*44
1496232076.72,43652,20.25,74302.3,13.79,-14.23,-17.25,0,*42
1496232077.95,43653,20.25,74306.3,13.85,-16.41,-18.99,0,*4E
1496232079.19,43654,20.25,74304.5,13.89,-19.47,-21.23,0,*47
1496232080.44,43655,20.25,74306.0,13.93,-19.31,-20.93,0,*46
1496232081.67,43656,20.25,74306.3,13.93,-18.35,-19.47,0,*43
1496232082.87,43657,20.25,74304.3,13.97,-18.65,-19.71,0,*46
1496232084.07,43658,20.25,74304.3,14.01,-20.25,-21.17,0,*45
1496232085.28,43659,20.25,74304.8,14.01,-20.89,-21.63,0,*41
1496232086.51,43660,20.25,74304.8,14.01,-21.17,-21.67,0,*49
1496232087.73,43661,20.25,74304.3,14.05,-21.09,-21.57,0,*40
1496232088.96,43662,20.25,74304.0,14.05,-21.09,-21.27,0,*44
1496232090.19,43663,20.25,74308.5,14.11,-20.39,-20.59,0,*4A
1496232091.41,43664,20.25,74316.8,14.11,-20.09,-19.99,0,*48
1496232092.63,43665,20.25,74320.8,14.15,-19.17,-19.03,0,*4B
1496232093.86,43666,20.25,74318.3,14.17,-18.21,-18.01,0,*4D
1496232095.09,43667,20.25,74324.5,14.23,-18.59,-18.21,0,*46
1496232096.35,43668,20.25,74326.8,14.25,-19.37,-18.93,0,*4F
1496232097.57,43669,20.25,74318.3,14.31,-19.81,-19.37,0,*49
1496232098.8,43670,20.25,74318.8,14.31,-19.81,-19.37,0,*41
1496232100.0,43671,20.25,74314.8,14.35,-19.95,-19.51,0,*41
1496232101.23,43672,20.25,74306.5,14.39,-22.63,-22.47,0,*40
1496232102.46,43673,20.25,74306.5,14.37,-22.67,-22.37,0,*4C
1496232103.67,43674,20.25,74308.0,14.35,-22.57,-22.41,0,*4B
1496232104.95,43675,20.25,74310.0,14.37,-23.19,-23.03,0,*44
1496232106.18,43676,20.25,74310.5,14.35,-23.23,-22.93,0,*44
1496232107.43,43677,20.31,74316.0,14.37,-21.09,-20.79,0,*4B
1496232108.72,43678,20.25,74320.0,14.37,-22.73,-22.31,0,*44
1496232109.98,43679,20.25,74320.5,14.37,-21.09,-20.53,0,*4D
1496232111.21,43680,20.25,74310.8,14.39,-18.93,-18.49,0,*4C
1496232112.44,43681,20.25,74306.5,14.41,-21.09,-20.73,0,*49
1496232113.66,43682,20.25,74300.3,14.45,-21.63,-21.13,0,*45
1496232114.92,43683,20.25,74296.8,14.45,-20.83,-20.39,0,*42
1496232116.12,43684,20.25,74294.8,14.47,-19.47,-19.13,0,*47
1496232117.36,43685,20.25,74296.0,14.49,-20.89,-20.43,0,*4F
1496232118.61,43686,20.25,74302.3,14.49,-20.59,-20.35,0,*40
1496232119.85,43687,20.25,74304.5,14.53,-21.47,-21.33,0,*43
1496232121.13,43688,20.25,74310.8,14.55,-21.03,-20.53,0,*4D
1496232122.39,43689,20.25,74318.0,14.55,-20.83,-20.59,0,*4F
1496232123.62,43690,20.25,74310.0,14.55,-21.17,-20.69,0,*48
1496232124.82,43691,20.25,74312.5,14.57,-22.11,-22.07,0,*44
1496232126.06,43692,20.25,74322.8,14.57,-23.19,-22.87,0,*46
1496232127.31,43693,20.25,74316.3,14.55,-23.13,-22.77,0,*40
1496232128.54,43694,20.25,74312.8,14.55,-18.69,-18.25,0,*4C
1496232129.8,43695,20.25,74318.5,14.59,-17.83,-17.41,0,*47
1496232131.05,43696,20.25,74326.0,14.61,-19.65,-19.41,0,*47
1496232132.31,43697,20.25,74324.8,14.63,-22.77,-22.63,0,*47
1496232133.57,43698,20.25,74320.5,14.63,-23.85,-23.75,0,*42
1496232134.77,43699,20.25,74318.5,14.61,-22.63,-22.37,0,*4F
1496232136.0,43700,20.25,74324.8,14.61,-23.03,-22.37,0,*49
1496232137.22,43701,20.25,74322.3,14.61,-20.19,-19.95,0,*40
1496232138.45,43702,20.25,74326.5,14.63,-20.09,-19.91,0,*44
1496232139.71,43703,20.25,74322.8,14.63,-22.17,-22.03,0,*4B
1496232140.94,43704,20.25,74310.0,14.63,-23.43,-23.43,0,*49
1496232142.17,43705,20.25,74306.8,14.61,-22.63,-22.31,0,*4D
1496232143.38,43706,20.25,74306.8,14.61,-22.53,-22.37,0,*4B
1496232144.61,43707,20.25,74310.5,14.65,-21.17,-20.53,0,*4D
1496232145.89,43708,20.25,74314.3,14.63,-22.17,-21.97,0,*4E
1496232147.15,43709,20.25,74308.5,14.61,-22.17,-21.83,0,*48
1496232148.39,43710,20.25,74308.0,14.61,-21.23,-20.73,0,*4A
1496232149.64,43711,20.25,74310.0,14.63,-20.59,-20.15,0,*45
1496232150.85,43712,20.25,74312.0,14.65,-19.91,-19.17,0,*46
1496232152.07,43713,20.25,74318.0,14.65,-20.53,-20.05,0,*4A
1496232153.32,43714,20.25,74318.8,14.67,-21.13,-20.83,0,*44
1496232154.53,43715,20.25,74314.5,14.69,-21.43,-21.09,0,*4D
1496232155.73,43716,20.25,74316.8,14.69,-21.39,-20.73,0,*4F
1496232156.94,43717,20.25,74314.5,14.69,-19.71,-19.07,0,*40
1496232158.17,43718,20.25,74310.3,14.71,-21.93,-21.43,0,*4A
1496232159.38,43719,20.25,74310.0,14.71,-22.07,-21.43,0,*45
1496232160.63,43720,20.25,74308.8,14.71,-20.93,-20.15,0,*42
1496232161.89,43721,20.25,74316.8,14.75,-21.67,-20.73,0,*4D
1496232163.15,43722,20.25,74310.5,14.71,-24.31,-23.49,0,*46
1496232164.39,43723,20.25,74290.8,14.69,-24.41,-23.75,0,*46
1496232165.61,43724,20.25,74284.8,14.67,-25.35,-24.47,0,*4B
1496232166.84,43725,20.25,74296.8,14.65,-23.85,-22.83,0,*4B
1496232168.11,43726,20.25,74296.5,14.63,-23.23,-21.97,0,*44
1496232169.34,43727,20.25,74302.5,14.63,-22.63,-21.17,0,*48
1496232170.57,43728,20.25,74314.3,14.63,-24.05,-22.63,0,*41
1496232171.8,43729,20.25,74310.8,14.61,-23.49,-22.03,0,*4B
1496232173.04,43730,20.25,74312.0,14.61,-23.75,-22.17,0,*49
1496232174.28,43731,20.25,74304.0,14.57,-23.95,-22.27,0,*40
1496232175.49,43732,20.25,74306.0,14.57,-22.37,-20.39,0,*47
1496232176.77,43733,20.25,74310.0,14.55,-21.33,-19.65,0,*40
1496232178.0,43734,20.25,74310.0,14.55,-23.13,-21.63,0,*4A
1496232179.25,43735,20.25,74314.0,14.59,-21.97,-20.05,0,*48
1496232180.49,43736,20.25,74310.8,14.55,-20.43,-19.13,0,*42
1496232181.75,43737,20.25,74316.3,14.59,-21.13,-19.57,0,*4B
1496232183.0,43738,20.25,74318.0,14.59,-20.79,-20.05,0,*44
1496232184.25,43739,20.25,74314.5,14.61,-19.13,-18.31,0,*44
1496232185.45,43740,20.25,74314.8,14.61,-21.09,-20.63,0,*46
1496232186.65,43741,20.25,74306.8,14.61,-20.29,-19.75,0,*49
1496232187.87,43742,20.25,74310.5,14.63,-19.47,-19.03,0,*4B
1496232189.15,43743,20.25,74310.0,14.63,-17.63,-17.03,0,*4C
1496232190.42,43744,20.25,74308.3,14.71,-19.41,-18.93,0,*40
1496232191.65,43745,20.25,74310.0,14.71,-22.37,-21.93,0,*42
1496232192.89,43746,20.31,74310.3,14.69,-22.37,-21.83,0,*49
1496232194.15,43747,20.25,74302.5,14.69,-23.99,-23.99,0,*44
1496232195.4,43748,20.25,74304.3,14.63,-25.49,-24.67,0,*4C
1496232196.62,43749,20.25,74304.0,14.61,-24.77,-23.95,0,*49
1496232197.88,43750,20.25,74312.0,14.61,-21.23,-20.19,0,*42
1496232199.12,43751,20.25,74320.0,14.63,-19.75,-18.59,0,*46
1496232200.38,43752,20.25,74312.8,14.63,-22.87,-21.67,0,*47
1496232201.63,43753,20.25,74308.5,14.63,-25.65,-23.99,0,*4E
1496232202.87,43754,20.25,74308.3,14.57,-24.71,-22.27,0,*4E
1496232204.1,43755,20.25,74314.3,14.57,-20.93,-18.01,0,*4A
1496232205.35,43756,20.31,74316.8,14.59,-21.13,-17.97,0,*4E
1496232206.59,43757,20.31,74316.0,14.57,-22.21,-18.11,0,*42
1496232207.82,43758,20.25,74310.5,14.59,-23.89,-19.51,0,*45
1496232209.06,43759,20.31,74308.8,14.57,-24.51,-19.85,0,*41
1496232210.29,43760,20.25,74304.8,14.53,-25.55,-21.09,0,*45
1496232211.54,43761,20.25,74312.3,14.45,-25.49,-21.57,0,*45
1496232212.8,43762,20.25,74308.3,14.41,-23.65,-20.89,0,*48
1496232214.03,43763,20.25,74306.5,14.35,-23.23,-22.11,0,*4B
1496232215.27,43764,20.25,74304.3,14.27,-22.53,-23.03,0,*4B
1496232216.51,43765,20.25,74306.3,14.25,-22.07,-23.95,0,*46
1496232217.74,43766,20.31,74334.0,14.17,-23.13,-26.29,0,*42
1496232218.96,43767,20.25,74324.5,14.09,-20.69,-24.87,0,*44
1496232220.17,43768,20.25,74310.8,14.09,-20.59,-25.19,0,*4E
1496232221.42,43769,20.25,74308.3,14.03,-17.97,-22.27,0,*49
1496232222.65,43770,20.25,74298.0,14.05,-17.93,-21.09,0,*4C
1496232223.89,43771,20.25,74288.8,14.09,-18.59,-20.79,0,*4E
1496232225.14,43772,20.25,74286.5,14.11,-20.79,-22.63,0,*44
1496232226.36,43773,20.25,74286.5,14.09,-22.63,-23.69,0,*4E
1496232227.62,43774,20.25,74290.5,14.09,-24.25,-24.87,0,*4A
1496232228.84,43775,20.25,74292.5,14.09,-25.23,-25.55,0,*42
1496232230.06,43776,20.25,74300.5,14.03,-24.97,-24.97,0,*4A
1496232231.29,43777,20.25,74310.8,14.03,-24.05,-23.79,0,*47
1496232232.51,43778,20.25,74308.5,14.03,-24.05,-23.89,0,*47
1496232233.77,43779,20.25,74304.5,13.99,-22.97,-22.73,0,*4B
1496232235.02,43780,20.31,74310.5,14.01,-23.85,-23.53,0,*4A
1496232236.24,43781,20.25,74312.0,13.99,-23.39,-22.93,0,*47
1496232237.47,43782,20.31,74310.0,14.01,-22.87,-22.31,0,*4E
1496232238.68,43783,20.25,74306.8,14.01,-23.59,-23.13,0,*4C
1496232239.93,43784,20.25,74304.0,14.01,-24.67,-24.21,0,*47
1496232241.13,43785,20.25,74314.8,14.01,-22.11,-21.63,0,*42
1496232242.38,43786,20.25,74314.5,14.03,-20.49,-19.91,0,*4A
1496232243.61,43787,20.25,74318.0,14.05,-19.41,-18.79,0,*48
1496232244.86,43788,20.25,74316.5,14.11,-21.73,-21.23,0,*4D
1496232246.11,43789,20.25,74318.0,14.11,-22.17,-21.63,0,*49
1496232247.34,43790,20.25,74308.5,14.11,-22.11,-21.63,0,*47
1496232248.54,43791,20.25,74312.0,14.13,-22.67,-22.27,0,*46
1496232249.79,43792,20.25,74306.3,14.13,-23.85,-23.19,0,*44
1496232251.02,43793,20.25,74308.8,14.13,-23.53,-23.09,0,*4F
1496232252.23,43794,20.25,74304.5,14.09,-23.43,-22.83,0,*41
1496232253.47,43795,20.31,74314.0,14.13,-20.35,-19.81,0,*43
1496232254.73,43796,20.25,74308.3,14.15,-19.27,-18.73,0,*43
1496232255.98,43797,20.31,74308.0,14.17,-19.41,-18.93,0,*4E
1496232257.21,43798,20.25,74300.3,14.19,-18.65,-18.11,0,*42
1496232258.44,43799,20.25,74306.5,14.23,-19.13,-18.55,0,*4A
1496232259.65,43800,20.25,74304.5,14.23,-21.93,-21.77,0,*4C
1496232260.94,43801,20.25,74306.3,14.25,-20.99,-20.19,0,*49
1496232262.16,43802,20.25,74306.8,14.27,-20.79,-19.99,0,*44
1496232263.4,43803,20.25,74306.0,14.27,-19.07,-18.31,0,*45
1496232264.66,43804,20.25,74304.5,14.33,-19.65,-19.17,0,*46
1496232265.88,43805,20.25,74310.3,14.35,-22.07,-21.53,0,*46
1496232267.08,43806,20.31,74304.8,14.35,-22.87,-22.11,0,*48
1496232268.37,43807,20.25,74298.8,14.33,-21.67,-21.03,0,*42
1496232269.62,43808,20.25,74304.8,14.35,-20.53,-19.81,0,*4C
1496232270.85,43809,20.25,74304.8,14.35,-24.21,-23.59,0,*40
1496232272.11,43810,20.25,74310.3,14.35,-26.17,-25.71,0,*43
1496232273.35,43811,20.25,74306.0,14.31,-24.41,-23.79,0,*49
1496232274.58,43812,20.25,74300.5,14.27,-20.49,-19.71,0,*40
1496232275.79,43813,20.25,74300.5,14.27,-18.65,-18.07,0,*44
1496232277.02,43814,20.25,74308.3,14.33,-18.25,-17.83,0,*41
1496232278.28,43815,20.31,74310.0,14.37,-18.35,-18.07,0,*46
1496232279.56,43816,20.25,74310.8,14.41,-18.01,-17.41,0,*4E
1496232280.79,43817,20.25,74306.0,14.43,-18.21,-17.93,0,*40
1496232281.98,43818,20.25,74312.0,14.47,-18.65,-18.21,0,*4D
1496232283.22,43819,20.31,74316.3,14.53,-19.31,-19.13,0,*49
1496232284.46,43820,20.31,74316.0,14.55,-20.89,-20.43,0,*43
1496232285.72,43821,20.31,74316.8,14.55,-21.17,-20.83,0,*48
1496232286.93,43822,20.25,74318.8,14.53,-21.39,-20.89,0,*4B
1496232288.17,43823,20.25,74318.3,14.57,-20.49,-20.09,0,*40
1496232289.42,43824,20.31,74310.8,14.55,-20.69,-20.15,0,*4A
1496232290.62,43825,20.25,74310.8,14.57,-22.11,-21.93,0,*4B
1496232291.83,43826,20.25,74306.8,14.53,-23.43,-23.13,0,*40
1496232293.05,43827,20.25,74298.8,14.53,-28.53,-28.31,0,*40
1496232294.28,43828,20.25,74302.8,14.43,-31.33,-31.11,0,*4A
1496232295.52,43829,20.25,74300.0,14.35,-26.65,-25.97,0,*44
1496232296.78,43830,20.25,74308.3,14.33,-23.33,-22.63,0,*40
1496232298.01,43831,20.25,74300.3,14.31,-22.73,-22.27,0,*46
1496232299.24,43832,20.25,74298.3,14.31,-24.25,-23.89,0,*45
1496232300.48,43833,20.25,74302.8,14.27,-23.53,-22.97,0,*4B
1496232301.72,43834,20.25,74304.0,14.27,-22.97,-22.31,0,*49
1496232302.93,43835,20.31,74308.8,14.27,-22.53,-21.77,0,*41
1496232304.17,43836,20.25,74306.5,14.31,-21.53,-20.43,0,*40
1496232305.4,43837,20.25,74298.8,14.31,-20.49,-19.51,0,*42
1496232306.61,43838,20.31,74298.0,14.31,-19.99,-19.03,0,*4D
1496232307.86,43839,20.25,74298.0,14.33,-19.51,-18.35,0,*4E
1496232309.1,43840,20.31,74300.8,14.37,-18.83,-17.73,0,*47
1496232310.3,43841,20.31,74300.5,14.39,-19.03,-17.73,0,*41
1496232311.49,43842,20.31,74302.0,14.43,-20.09,-18.83,0,*4F
1496232312.72,43843,20.25,74294.0,14.43,-21.93,-20.53,0,*4A
1496232313.97,43844,20.31,74298.3,14.45,-20.93,-19.41,0,*43
1496232315.21,43845,20.25,74292.5,14.45,-19.71,-18.07,0,*47
1496232316.43,43846,20.25,74286.5,14.45,-20.25,-18.65,0,*4B
1496232317.66,43847,20.25,74290.0,14.47,-19.13,-17.25,0,*4C
1496232318.89,43848,20.25,74296.8,14.53,-17.79,-15.99,0,*41
1496232320.15,43849,20.31,74302.3,14.55,-19.17,-17.17,0,*44
1496232321.38,43850,20.25,74306.3,14.59,-19.03,-16.97,0,*4C
1496232322.63,43851,20.25,74308.0,14.61,-18.01,-15.89,0,*49
1496232323.86,43852,20.25,74310.5,14.63,-18.41,-15.99,0,*4D
1496232325.06,43853,20.31,74310.0,14.65,-16.59,-14.11,0,*4C
1496232326.31,43854,20.25,74308.8,14.71,-16.41,-13.79,0,*4E
1496232327.52,43855,20.31,74310.0,14.77,-16.41,-13.65,0,*44
1496232328.75,43856,20.25,74310.8,14.81,-16.27,-13.51,0,*49
1496232330.0,43857,20.25,74316.5,14.83,-17.07,-14.33,0,*4A
1496232331.23,43858,20.25,74312.5,14.85,-19.95,-17.11,0,*45
1496232332.45,43859,20.31,74314.5,14.89,-20.19,-17.31,0,*44
1496232333.71,43860,20.25,74306.8,14.87,-22.77,-19.47,0,*45
1496232334.92,43861,20.31,74298.0,14.85,-20.43,-16.97,0,*41
1496232336.15,43862,20.31,74290.0,14.85,-18.93,-15.71,0,*4F
1496232337.39,43863,20.31,74288.8,14.89,-18.45,-14.97,0,*40
1496232338.66,43864,20.25,74290.3,14.91,-17.07,-13.83,0,*45
1496232339.89,43865,20.25,74296.8,14.93,-17.59,-14.15,0,*45
1496232341.15,43866,20.25,74296.0,14.99,-18.07,-14.47,0,*4F
1496232342.35,43867,20.25,74302.3,15.01,-17.31,-13.65,0,*43
1496232343.61,43868,20.25,74298.0,15.03,-16.79,-13.01,0,*41
1496232344.86,43869,20.31,74302.0,15.07,-16.27,-12.39,0,*45
1496232346.14,43870,20.25,74300.3,15.11,-16.23,-12.35,0,*42
1496232347.4,43871,20.25,74300.5,15.15,-16.37,-12.53,0,*42
1496232348.68,43872,20.31,74306.0,15.21,-18.01,-14.05,0,*48
1496232349.95,43873,20.25,74304.5,15.21,-16.55,-12.71,0,*43
1496232351.21,43874,20.31,74306.8,15.25,-17.45,-13.65,0,*44
1496232352.46,43875,20.31,74306.3,15.29,-16.17,-12.39,0,*47
1496232353.72,43876,20.25,74296.3,15.33,-16.41,-12.61,0,*41
1496232354.98,43877,20.25,74296.8,15.35,-16.23,-12.35,0,*43
1496232356.26,43878,20.25,74292.8,15.37,-16.09,-12.57,0,*42
1496232357.48,43879,20.25,74292.0,15.43,-16.65,-13.07,0,*4E
1496232358.73,43880,20.31,74302.8,15.45,-16.31,-12.89,0,*48
1496232359.96,43881,20.31,74306.3,15.47,-16.23,-12.89,0,*48
1496232361.24,43882,20.25,74304.0,15.51,-15.89,-12.83,0,*45
1496232362.45,43883,20.25,74300.5,15.53,-16.45,-13.51,0,*4B
1496232363.7,43884,20.31,74304.5,15.55,-15.71,-12.75,0,*49
1496232364.93,43885,20.25,74306.5,15.59,-15.75,-13.07,0,*44
1496232366.16,43886,20.31,74308.8,15.59,-15.71,-12.93,0,*4F
1496232367.42,43887,20.31,74310.0,15.63,-15.53,-12.61,0,*4A
1496232368.62,43888,20.31,74306.5,15.69,-14.29,-11.41,0,*42
1496232369.87,43889,20.25,74304.0,15.73,-14.55,-11.77,0,*46
1496232371.07,43890,20.25,74304.5,15.77,-14.89,-12.03,0,*4B
1496232372.31,43891,20.25,74306.8,15.77,-15.39,-12.11,0,*43
1496232373.51,43892,20.31,74308.0,15.83,-14.65,-11.23,0,*41
1496232374.73,43893,20.31,74310.5,15.85,-14.33,-10.85,0,*48
1496232375.98,43894,20.31,74308.8,15.91,-14.43,-10.75,0,*42
1496232377.21,43895,20.31,74312.0,15.95,-14.75,-10.97,0,*4E
1496232378.41,43896,20.25,74314.8,15.99,-14.33,-10.49,0,*40
1496232379.66,43897,20.25,74312.0,16.03,-16.69,-12.79,0,*4D
1496232380.9,43898,20.31,74318.3,16.01,-16.31,-12.25,0,*44
1496232382.1,43899,20.31,74318.3,16.03,-15.29,-11.11,0,*49
1496232383.3,43900,20.31,74320.3,16.07,-16.59,-12.43,0,*4C
1496232384.53,43901,20.25,74324.5,16.07,-17.41,-12.97,0,*4C
1496232385.78,43902,20.25,74328.3,16.07,-19.85,-15.21,0,*43
1496232386.98,43903,20.31,74324.5,16.07,-20.25,-15.49,0,*4C
1496232388.23,43904,20.25,74318.8,16.07,-21.67,-16.65,0,*41
1496232389.45,43905,20.31,74318.8,16.03,-21.43,-16.27,0,*44
1496232390.7,43906,20.25,74318.0,16.01,-22.27,-17.07,0,*47
1496232391.95,43907,20.25,74314.8,15.97,-21.73,-16.69,0,*41
1496232393.2,43908,20.25,74316.0,15.95,-20.35,-14.97,0,*4C
1496232394.45,43909,20.25,74316.3,15.97,-18.31,-13.15,0,*4D
1496232395.7,43910,20.25,74316.0,15.95,-17.59,-12.35,0,*45
1496232396.95,43911,20.31,74320.3,15.99,-17.03,-11.73,0,*46
1496232398.2,43912,20.31,74320.0,16.01,-15.57,-10.19,0,*49
1496232399.43,43913,20.31,74316.3,16.01,-14.93,-9.79,0,*7F
1496232400.63,43914,20.25,74308.8,16.07,-16.37,-11.19,0,*4D
1496232401.86,43915,20.31,74314.5,16.07,-17.87,-12.83,0,*46
1496232403.08,43916,20.31,74314.0,16.11,-17.73,-12.65,0,*41
1496232404.3,43917,20.25,74310.3,16.11,-16.59,-11.59,0,*45
1496232405.54,43918,20.31,74310.5,16.13,-16.03,-11.11,0,*4B
1496232406.8,43919,20.31,74310.0,16.15,-16.65,-11.63,0,*49
1496232408.04,43920,20.25,74308.5,16.17,-16.97,-12.21,0,*49
1496232409.27,43921,20.31,74316.5,16.17,-17.69,-12.89,0,*4A
1496232410.51,43922,20.25,74314.8,16.17,-17.87,-13.11,0,*49
1496232411.75,43923,20.25,74314.3,16.17,-16.89,-12.21,0,*45
1496232412.98,43924,20.25,74310.8,16.19,-16.45,-11.85,0,*41
1496232414.22,43925,20.31,74314.8,16.21,-16.03,-11.45,0,*45
1496232415.45,43926,20.31,74312.3,16.23,-15.71,-11.29,0,*48
1496232416.72,43927,20.31,74312.8,16.27,-16.17,-11.85,0,*48
1496232418.0,43928,20.31,74310.8,16.29,-15.43,-11.07,0,*41
1496232419.22,43929,20.31,74310.8,16.31,-14.11,-9.93,0,*7B
1496232420.47,43930,20.31,74308.3,16.37,-13.93,-9.53,0,*74
1496232421.7,43931,20.25,74310.3,16.39,-13.65,-9.45,0,*75
1496232422.93,43932,20.31,74314.0,16.43,-16.45,-11.97,0,*4A
1496232424.17,43933,20.31,74314.3,16.45,-15.95,-11.63,0,*48
1496232425.39,43934,20.31,74316.0,16.45,-15.25,-10.57,0,*42
1496232426.67,43935,20.31,74318.3,16.47,-14.93,-10.41,0,*4A
1496232427.91,43936,20.31,74318.3,16.51,-14.29,-9.79,0,*7C
1496232429.16,43937,20.31,74320.5,16.55,-14.33,-9.53,0,*7A
1496232430.42,43938,20.25,74318.3,16.59,-14.01,-9.27,0,*7B
1496232431.67,43939,20.25,74318.0,16.63,-13.73,-9.11,0,*74
1496232432.95,43940,20.31,74322.8,16.67,-13.61,-9.41,0,*78
1496232434.18,43941,20.31,74324.3,16.71,-15.15,-10.49,0,*4B
1496232435.42,43942,20.31,74328.0,16.71,-15.15,-10.23,0,*44
1496232436.64,43943,20.31,74330.0,16.75,-14.69,-9.93,0,*78
1496232437.89,43944,20.31,74332.3,16.75,-15.57,-10.97,0,*4F
1496232439.12,43945,20.25,74328.3,16.77,-18.65,-13.93,0,*47
1496232440.34,43946,20.25,74328.5,16.77,-20.05,-15.63,0,*40
1496232441.57,43947,20.31,74326.0,16.73,-22.67,-17.79,0,*4A
1496232442.8,43948,20.31,74320.5,16.69,-21.23,-16.45,0,*43
1496232444.03,43949,20.31,74322.5,16.67,-17.73,-13.19,0,*40
1496232445.3,43950,20.31,74318.8,16.67,-19.51,-15.35,0,*4E
1496232446.57,43951,20.31,74328.3,16.63,-21.97,-17.63,0,*4B
1496232447.83,43952,20.31,74320.8,16.61,-20.53,-16.17,0,*41
1496232449.09,43953,20.25,74312.0,16.55,-20.63,-16.23,0,*43
1496232450.35,43954,20.31,74314.5,16.51,-21.77,-17.41,0,*41
1496232451.65,43955,20.31,74304.0,16.51,-21.33,-17.07,0,*42
1496232452.88,43956,20.31,74314.3,16.47,-22.03,-17.83,0,*4A
1496232454.12,43957,20.31,74318.5,16.43,-21.53,-16.93,0,*49
1496232455.35,43958,20.31,74314.0,16.41,-18.99,-14.29,0,*4B
1496232456.62,43959,20.31,74312.3,16.41,-19.65,-15.15,0,*46
1496232457.85,43960,20.31,74308.3,16.41,-20.25,-15.49,0,*4B
1496232459.11,43961,20.31,74310.5,16.41,-19.47,-14.51,0,*4C
1496232460.38,43962,20.31,74314.8,16.39,-19.41,-14.47,0,*41
1496232461.66,43963,20.25,74308.5,16.37,-20.79,-15.35,0,*4B
1496232462.92,43964,20.31,74306.3,16.37,-21.03,-15.49,0,*4B
1496232464.18,43965,20.31,74302.3,16.37,-19.31,-13.55,0,*4B
1496232465.42,43966,20.31,74300.8,16.33,-16.89,-10.93,0,*49
1496232466.68,43967,20.31,74302.8,16.37,-17.07,-10.97,0,*4F
1496232467.89,43968,20.31,74302.8,16.39,-18.17,-12.03,0,*4F
1496232469.13,43969,20.31,74304.5,16.41,-18.45,-12.03,0,*46
1496232470.34,43970,20.31,74302.0,16.39,-18.65,-12.03,0,*43
1496232471.58,43971,20.25,74298.8,16.39,-20.43,-13.33,0,*4F
1496232472.82,43972,20.31,74300.5,16.39,-18.31,-11.19,0,*48
1496232474.05,43973,20.31,74298.8,16.39,-16.45,-9.45,0,*74
1496232475.28,43974,20.31,74298.5,16.41,-15.29,-8.25,0,*72
1496232476.5,43975,20.31,74302.5,16.45,-14.93,-7.87,0,*70
1496232477.71,43976,20.31,74304.3,16.49,-14.29,-7.11,0,*71
1496232478.93,43977,20.31,74302.0,16.53,-14.37,-7.05,0,*71
1496232480.21,43978,20.31,74306.0,16.59,-13.37,-6.19,0,*7F
1496232481.46,43979,20.31,74310.5,16.63,-14.89,-7.73,0,*78
1496232482.71,43980,20.31,74308.0,16.65,-14.79,-7.35,0,*75
1496232483.95,43981,20.31,74314.5,16.67,-14.15,-6.59,0,*77
1496232485.22,43982,20.31,74314.0,16.71,-15.01,-7.61,0,*7D
1496232486.45,43983,20.31,74312.5,16.75,-15.15,-7.83,0,*71
1496232487.71,43984,20.31,74314.8,16.75,-13.97,-6.55,0,*70
1496232488.96,43985,20.31,74318.0,16.77,-14.65,-7.31,0,*7A
1496232490.21,43986,20.31,74318.3,16.83,-14.55,-7.31,0,*71
1496232491.44,43987,20.31,74314.5,16.83,-14.23,-7.05,0,*76
1496232492.71,43988,20.31,74316.8,16.85,-14.43,-7.73,0,*78
1496232493.97,43989,20.31,74318.0,16.85,-14.23,-7.35,0,*7D
1496232495.23,43990,20.31,74316.5,16.89,-14.51,-7.87,0,*75
1496232496.49,43991,20.25,74316.3,16.89,-16.13,-9.71,0,*77
1496232497.72,43992,20.31,74322.5,16.89,-16.41,-9.97,0,*7B